Location: Unspecified
(38.9820°N, 94.4650°W)
Time: 10:15:04
(UTC-05:00)

Resurs 1-4 Rocket - Visible Passes

Search period start: 24 May 2015 00:00
Search period end: 03 June 2015 00:00
Orbit: 800 x 814 km, 98.4° (Epoch: 23 May)

Date Brightness Start Highest point End Pass type
(mag) Time Alt. Az. Time Alt. Az. Time Alt. Az.
24 May 2.2 04:51:30 10° NNE 04:56:51 85° E 05:02:12 10° SSW visible
25 May 2.9 04:27:10 10° NNE 04:32:20 50° E 04:37:30 10° S visible
26 May 3.8 04:03:07 10° NE 04:07:42 30° E 04:12:21 10° SSE visible
27 May 4.5 03:39:34 10° NE 03:42:57 18° E 03:46:32 10° SE visible
27 May 2.4 05:18:01 10° N 05:23:14 54° WNW 05:28:23 10° SSW visible
28 May 2.2 04:53:27 10° NNE 04:58:48 89° E 05:04:08 10° SSW visible
29 May 2.8 04:29:05 10° NNE 04:34:17 53° E 04:39:29 10° S visible
30 May 3.7 04:04:59 10° NE 04:09:39 31° E 04:14:23 10° SSE visible
31 May 4.4 03:41:22 10° NE 03:44:55 19° E 03:48:39 10° SE visible
31 May 2.4 05:19:59 10° N 05:25:09 52° WNW 05:30:17 10° SSW visible
01 Jun 4.9 03:19:37 10° E 03:20:02 10° E 03:20:54 10° E visible
01 Jun 2.1 04:55:22 10° NNE 05:00:44 87° WNW 05:06:04 10° SSW visible
02 Jun 2.7 04:30:59 10° NNE 04:36:13 56° E 04:41:27 10° S visible
